| time (UTC) | temp F | wind direction | speed MPH | gust MPH | rain 1hr in | rain 24hr in | rain mn in | humidity % | barometer mb |
| 20260831050259 | 66 | 223 | 0.0 | 1.0 | 0.00 | 0.02 | 0.02 | 72 | 1020.2 |
| 20260831045751 | 66 | 223 | 0.0 | 0.0 | 0.00 | 0.02 | 0.02 | 71 | 1020.0 |
| 20260831045245 | 66 | 223 | 0.0 | 0.0 | 0.00 | 0.02 | 0.02 | 71 | 1019.5 |
| 20260831044739 | 66 | 223 | 0.0 | 0.0 | 0.00 | 0.02 | 0.02 | 71 | 1019.3 |
| 20260831044233 | 66 | 223 | 0.0 | 0.0 | 0.00 | 0.02 | 0.02 | 70 | 1019.0 |
| 20260831043727 | 66 | 223 | 0.0 | 0.0 | 0.00 | 0.02 | 0.02 | 70 | 1018.9 |
| 20260831043222 | 67 | 223 | 0.0 | 0.0 | 0.00 | 0.02 | 0.02 | 70 | 1018.9 |
| 20260831042716 | 67 | 223 | 0.0 | 0.0 | 0.00 | 0.02 | 0.02 | 70 | 1018.8 |
| 20260831042209 | 67 | 223 | 0.0 | 0.0 | 0.00 | 0.02 | 0.02 | 69 | 1018.8 |
| 20260831041703 | 67 | 223 | 0.0 | 0.0 | 0.00 | 0.02 | 0.02 | 69 | 1018.9 |
| 20260831041157 | 67 | 223 | 0.0 | 0.0 | 0.00 | 0.02 | 0.02 | 69 | 1018.9 |
| 20260831040145 | 67 | 223 | 0.0 | 0.0 | 0.00 | 0.02 | 0.02 | 69 | 1018.8 |
| 20260831035640 | 67 | 223 | 0.0 | 0.0 | 0.00 | 0.02 | 0.02 | 68 | 1018.8 |
| 20260831035133 | 67 | 223 | 0.0 | 0.0 | 0.00 | 0.02 | 0.02 | 68 | 1018.8 |
| 20260831034627 | 67 | 223 | 0.0 | 0.0 | 0.00 | 0.02 | 0.02 | 68 | 1018.8 |
| 20260831034119 | 67 | 223 | 0.0 | 0.0 | 0.00 | 0.02 | 0.02 | 67 | 1018.8 |
| 20260831033613 | 67 | 223 | 0.0 | 0.0 | 0.00 | 0.02 | 0.02 | 67 | 1018.8 |
| 20260831033108 | 67 | 223 | 0.0 | 0.0 | 0.00 | 0.02 | 0.02 | 66 | 1018.8 |
| 20260831032602 | 67 | 223 | 0.0 | 0.0 | 0.00 | 0.02 | 0.02 | 66 | 1018.8 |
| 20260831032055 | 67 | 223 | 0.0 | 0.0 | 0.00 | 0.02 | 0.02 | 65 | 1018.7 |
| 20260831031549 | 67 | 223 | 0.0 | 0.0 | 0.00 | 0.02 | 0.02 | 65 | 1018.7 |
| 20260831031042 | 67 | 223 | 0.0 | 0.0 | 0.00 | 0.02 | 0.02 | 65 | 1018.6 |
| 20260831030537 | 68 | 223 | 0.0 | 0.0 | 0.00 | 0.02 | 0.02 | 64 | 1018.6 |
| 20260831030031 | 68 | 223 | 0.0 | 0.0 | 0.00 | 0.02 | 0.02 | 64 | 1018.6 |
| 20260831025526 | 68 | 223 | 0.0 | 0.0 | 0.00 | 0.02 | 0.02 | 63 | 1018.5 |
| 20260831025019 | 68 | 223 | 0.0 | 0.0 | 0.00 | 0.02 | 0.02 | 63 | 1018.3 |
| 20260831024513 | 69 | 223 | 0.0 | 0.0 | 0.00 | 0.02 | 0.02 | 63 | 1018.5 |
| 20260831024006 | 69 | 223 | 0.0 | 0.0 | 0.00 | 0.02 | 0.02 | 63 | 1018.5 |
| 20260831023500 | 69 | 223 | 0.0 | 0.0 | 0.00 | 0.02 | 0.02 | 62 | 1018.1 |
| 20260831021942 | 69 | 223 | 0.0 | 0.0 | 0.00 | 0.02 | 0.02 | 62 | 1017.9 |
| 20260831021437 | 70 | 223 | 0.0 | 0.0 | 0.00 | 0.02 | 0.02 | 62 | 1018.0 |
| 20260831020931 | 70 | 223 | 0.0 | 0.0 | 0.00 | 0.02 | 0.02 | 62 | 1017.9 |
| 20260831020425 | 70 | 223 | 0.0 | 0.0 | 0.00 | 0.02 | 0.02 | 61 | 1017.9 |
| 20260831015920 | 70 | 223 | 0.0 | 0.0 | 0.00 | 0.02 | 0.02 | 61 | 1017.9 |
| 20260831015412 | 71 | 223 | 0.0 | 0.0 | 0.00 | 0.02 | 0.02 | 61 | 1017.9 |
| 20260831014401 | 71 | 223 | 0.0 | 0.0 | 0.00 | 0.02 | 0.02 | 60 | 1017.8 |
| 20260831013350 | 72 | 223 | 0.0 | 0.0 | 0.00 | 0.02 | 0.02 | 59 | 1017.8 |
| 20260831012842 | 72 | 223 | 0.0 | 0.0 | 0.00 | 0.02 | 0.02 | 59 | 1017.9 |
| 20260831012337 | 73 | 223 | 0.0 | 0.0 | 0.00 | 0.02 | 0.02 | 58 | 1017.8 |
| 20260831011831 | 73 | 223 | 0.0 | 0.0 | 0.00 | 0.02 | 0.02 | 58 | 1017.6 |
| 20260831011325 | 73 | 223 | 0.0 | 0.0 | 0.00 | 0.02 | 0.02 | 57 | 1017.8 |
| 20260831005807 | 75 | 222 | 0.0 | 0.0 | 0.00 | 0.02 | 0.02 | 56 | 1017.6 |
| 20260831004250 | 75 | 222 | 0.0 | 0.0 | 0.00 | 0.02 | 0.02 | 56 | 1017.8 |
| 20260831003239 | 75 | 222 | 0.0 | 0.0 | 0.00 | 0.02 | 0.02 | 56 | 1017.8 |
| 20260831002733 | 75 | 222 | 0.0 | 2.0 | 0.00 | 0.02 | 0.02 | 56 | 1017.8 |
| 20260831002225 | 75 | 222 | 0.0 | 2.0 | 0.00 | 0.02 | 0.02 | 57 | 1018.0 |
| 20260831001718 | 74 | 222 | 0.0 | 2.0 | 0.00 | 0.02 | 0.02 | 59 | 1017.9 |
| 20260831001213 | 74 | 223 | 0.0 | 0.0 | 0.00 | 0.02 | 0.02 | 59 | 1017.9 |
| 20260831000201 | 73 | 225 | 0.0 | 0.0 | 0.00 | 0.02 | 0.02 | 62 | 1017.9 |
| 20260830235655 | 73 | 225 | 0.0 | 0.0 | 0.00 | 0.02 | 0.02 | 63 | 1017.9 |
| 20260830234139 | 71 | 226 | 0.0 | 0.0 | 0.00 | 0.02 | 0.02 | 64 | 1017.8 |
| 20260830233631 | 71 | 226 | 0.0 | 0.0 | 0.00 | 0.02 | 0.02 | 65 | 1017.8 |
| 20260830233125 | 71 | 226 | 0.0 | 0.0 | 0.00 | 0.02 | 0.02 | 66 | 1017.9 |
| 20260830232618 | 71 | 226 | 0.0 | 0.0 | 0.01 | 0.02 | 0.02 | 66 | 1017.8 |
| 20260830232113 | 71 | 226 | 0.0 | 0.0 | 0.01 | 0.02 | 0.02 | 65 | 1017.8 |
| 20260830231608 | 71 | 226 | 0.0 | 0.0 | 0.01 | 0.02 | 0.02 | 65 | 1017.8 |
| 20260830231102 | 70 | 226 | 0.0 | 0.0 | 0.01 | 0.02 | 0.02 | 64 | 1017.8 |
| 20260830230556 | 70 | 226 | 0.0 | 0.0 | 0.01 | 0.02 | 0.02 | 64 | 1017.8 |
| 20260830230048 | 70 | 226 | 0.0 | 0.0 | 0.01 | 0.02 | 0.02 | 63 | 1017.6 |
| 20260830225050 | 70 | 226 | 0.0 | 0.0 | 0.01 | 0.02 | 0.02 | 61 | 1017.9 |
| 20260830224548 | 70 | 226 | 0.0 | 0.0 | 0.01 | 0.02 | 0.02 | 59 | 1017.9 |
| 20260830224047 | 70 | 226 | 0.0 | 0.0 | 0.01 | 0.02 | 0.02 | 59 | 1018.1 |
| 20260830223544 | 71 | 226 | 0.0 | 0.0 | 0.01 | 0.02 | 0.02 | 59 | 1018.2 |
| 20260830222046 | 71 | 221 | 0.0 | 0.0 | 0.00 | 0.01 | 0.01 | 56 | 1018.8 |
| 20260830221542 | 71 | 261 | 0.0 | 0.0 | 0.00 | 0.01 | 0.01 | 56 | 1018.8 |
| 20260830221041 | 71 | 258 | 0.0 | 1.0 | 0.00 | 0.01 | 0.01 | 55 | 1018.8 |
| 20260830220039 | 72 | 245 | 1.0 | 9.0 | 0.00 | 0.01 | 0.01 | 53 | 1018.6 |
| 20260830215538 | 72 | 281 | 1.0 | 9.0 | 0.00 | 0.01 | 0.01 | 51 | 1018.6 |
| 20260830215039 | 72 | 345 | 1.0 | 8.0 | 0.00 | 0.01 | 0.01 | 50 | 1018.3 |
| 20260830214534 | 72 | 315 | 1.0 | 13.0 | 0.00 | 0.01 | 0.01 | 50 | 1018.2 |
| 20260830214034 | 72 | 296 | 0.0 | 13.0 | 0.01 | 0.01 | 0.01 | 50 | 1018.2 |
| 20260830213535 | 72 | 13 | 1.0 | 9.0 | 0.01 | 0.01 | 0.01 | 52 | 1018.2 |
| 20260830213035 | 72 | 258 | 2.0 | 9.0 | 0.01 | 0.01 | 0.01 | 52 | 1018.2 |
| 20260830212534 | 72 | 213 | 3.0 | 15.0 | 0.01 | 0.01 | 0.01 | 52 | 1018.3 |
| 20260830212036 | 72 | 18 | 3.0 | 15.0 | 0.01 | 0.01 | 0.01 | 54 | 1018.6 |
| 20260830211537 | 72 | 5 | 3.0 | 14.0 | 0.01 | 0.01 | 0.01 | 57 | 1018.6 |
| 20260830211036 | 73 | 293 | 3.0 | 14.0 | 0.01 | 0.01 | 0.01 | 60 | 1018.7 |
| 20260830210536 | 73 | 332 | 1.0 | 10.0 | 0.01 | 0.01 | 0.01 | 64 | 1018.6 |
| 20260830205532 | 74 | 32 | 2.0 | 10.0 | 0.01 | 0.01 | 0.01 | 62 | 1018.5 |
| 20260830205033 | 76 | 10 | 3.0 | 12.0 | 0.01 | 0.01 | 0.01 | 58 | 1018.0 |
| 20260830204032 | 79 | 337 | 3.0 | 10.0 | 0.00 | 0.00 | 0.00 | 44 | 1017.8 |
| 20260830203533 | 79 | 65 | 3.0 | 11.0 | 0.00 | 0.00 | 0.00 | 42 | 1017.8 |
| 20260830203032 | 80 | 344 | 2.0 | 11.0 | 0.00 | 0.00 | 0.00 | 42 | 1017.4 |
| 20260830202033 | 82 | 290 | 0.0 | 10.0 | 0.00 | 0.00 | 0.00 | 41 | 1016.9 |
| 20260830201526 | 82 | 334 | 1.0 | 14.0 | 0.00 | 0.00 | 0.00 | 39 | 1016.9 |
| 20260830201021 | 84 | 335 | 1.0 | 14.0 | 0.00 | 0.00 | 0.00 | 37 | 1016.9 |
| 20260830200008 | 86 | 319 | 0.0 | 0.0 | 0.00 | 0.00 | 0.00 | 35 | 1016.6 |
| 20260830195503 | 86 | 157 | 0.0 | 0.0 | 0.00 | 0.00 | 0.00 | 35 | 1016.4 |
| 20260830194958 | 86 | 157 | 0.0 | 0.0 | 0.00 | 0.00 | 0.00 | 35 | 1016.4 |
| 20260830194450 | 86 | 157 | 0.0 | 0.0 | 0.00 | 0.00 | 0.00 | 34 | 1016.2 |
| 20260830193944 | 86 | 157 | 0.0 | 0.0 | 0.00 | 0.00 | 0.00 | 34 | 1016.0 |
| 20260830193438 | 86 | 157 | 0.0 | 0.0 | 0.00 | 0.00 | 0.00 | 35 | 1015.9 |
| 20260830192932 | 86 | 212 | 0.0 | 0.0 | 0.00 | 0.00 | 0.00 | 34 | 1015.9 |
| 20260830192427 | 86 | 212 | 0.0 | 0.0 | 0.00 | 0.00 | 0.00 | 35 | 1015.9 |
| 20260830191920 | 86 | 212 | 0.0 | 0.0 | 0.00 | 0.00 | 0.00 | 36 | 1015.8 |
| 20260830191415 | 85 | 212 | 0.0 | 0.0 | 0.00 | 0.00 | 0.00 | 35 | 1015.9 |
| 20260830190909 | 85 | 230 | 0.0 | 0.0 | 0.00 | 0.00 | 0.00 | 38 | 1016.1 |
| 20260830190403 | 85 | 230 | 0.0 | 0.0 | 0.00 | 0.00 | 0.00 | 38 | 1016.1 |
| 20260830185856 | 85 | 230 | 0.0 | 0.0 | 0.00 | 0.00 | 0.00 | 38 | 1016.1 |
| 20260830185352 | 84 | 231 | 0.0 | 0.0 | 0.00 | 0.00 | 0.00 | 39 | 1016.1 |
| 20260830183831 | 84 | 263 | 0.0 | 0.0 | 0.00 | 0.00 | 0.00 | 39 | 1016.5 |
| 20260830182314 | 83 | 265 | 0.0 | 0.0 | 0.00 | 0.00 | 0.00 | 37 | 1016.4 |
| 20260830181808 | 83 | 265 | 0.0 | 0.0 | 0.00 | 0.00 | 0.00 | 39 | 1016.6 |
| 20260830181303 | 83 | 265 | 0.0 | 0.0 | 0.00 | 0.00 | 0.00 | 36 | 1016.5 |
| 20260830180756 | 82 | 265 | 0.0 | 0.0 | 0.00 | 0.00 | 0.00 | 36 | 1016.6 |
| 20260830175745 | 82 | 0 | 0.0 | 0.0 | 0.00 | 0.00 | 0.00 | 37 | 1016.7 |
| 20260830174732 | 81 | 0 | 0.0 | 0.0 | 0.00 | 0.00 | 0.00 | 38 | 1016.9 |
| 20260830174227 | 81 | 0 | 0.0 | 0.0 | 0.00 | 0.00 | 0.00 | 39 | 1016.9 |
| 20260830173721 | 80 | 0 | 0.0 | 0.0 | 0.00 | 0.00 | 0.00 | 40 | 1017.2 |
| 20260830173215 | 80 | 0 | 0.0 | 0.0 | 0.00 | 0.00 | 0.00 | 41 | 1017.1 |
| 20260830172709 | 80 | 0 | 0.0 | 0.0 | 0.00 | 0.00 | 0.00 | 39 | 1017.2 |
| 20260830171655 | 79 | 257 | 0.0 | 0.0 | 0.00 | 0.00 | 0.00 | 40 | 1017.3 |
| 20260830171151 | 78 | 252 | 0.0 | 0.0 | 0.00 | 0.00 | 0.00 | 44 | 1017.4 |
| 20260830170138 | 77 | 252 | 0.0 | 0.0 | 0.00 | 0.00 | 0.00 | 44 | 1017.4 |
| 20260830165632 | 77 | 252 | 0.0 | 0.0 | 0.00 | 0.00 | 0.00 | 46 | 1017.5 |
| 20260830165126 | 76 | 252 | 0.0 | 0.0 | 0.00 | 0.00 | 0.00 | 47 | 1017.5 |
| 20260830164620 | 76 | 252 | 0.0 | 0.0 | 0.00 | 0.00 | 0.00 | 52 | 1017.5 |
| 20260830164114 | 75 | 251 | 0.0 | 0.0 | 0.00 | 0.00 | 0.00 | 52 | 1017.6 |
| 20260830163608 | 74 | 251 | 0.0 | 0.0 | 0.00 | 0.00 | 0.00 | 52 | 1017.6 |
| 20260830163102 | 74 | 251 | 0.0 | 0.0 | 0.00 | 0.00 | 0.00 | 53 | 1017.8 |
| 20260830162556 | 74 | 252 | 0.0 | 0.0 | 0.00 | 0.00 | 0.00 | 51 | 1017.9 |
| 20260830162050 | 73 | 252 | 0.0 | 0.0 | 0.00 | 0.00 | 0.00 | 53 | 1017.9 |
| 20260830161543 | 73 | 251 | 0.0 | 0.0 | 0.00 | 0.00 | 0.00 | 52 | 1018.0 |
| 20260830161039 | 73 | 251 | 0.0 | 0.0 | 0.00 | 0.00 | 0.00 | 54 | 1017.9 |
| 20260830160532 | 72 | 251 | 0.0 | 0.0 | 0.00 | 0.00 | 0.00 | 55 | 1018.0 |
| 20260830160026 | 72 | 251 | 0.0 | 0.0 | 0.00 | 0.00 | 0.00 | 55 | 1018.1 |
| 20260830155520 | 71 | 250 | 0.0 | 1.0 | 0.00 | 0.00 | 0.00 | 55 | 1018.1 |
| 20260830155015 | 71 | 250 | 0.0 | 1.0 | 0.00 | 0.00 | 0.00 | 55 | 1018.1 |
| 20260830154509 | 71 | 251 | 0.0 | 0.0 | 0.00 | 0.00 | 0.00 | 56 | 1018.0 |
| 20260830153455 | 70 | 252 | 0.0 | 0.0 | 0.00 | 0.00 | 0.00 | 59 | 1017.9 |
| 20260830152443 | 70 | 252 | 0.0 | 0.0 | 0.00 | 0.00 | 0.00 | 60 | 1017.9 |
| 20260830151939 | 70 | 256 | 0.0 | 0.0 | 0.00 | 0.00 | 0.00 | 60 | 1017.8 |
| 20260830151432 | 70 | 250 | 0.0 | 0.0 | 0.00 | 0.00 | 0.00 | 62 | 1017.6 |
| 20260830150926 | 69 | 250 | 0.0 | 0.0 | 0.00 | 0.00 | 0.00 | 63 | 1017.6 |
| 20260830150419 | 69 | 250 | 0.0 | 0.0 | 0.00 | 0.00 | 0.00 | 64 | 1017.6 |
| 20260830145408 | 68 | 249 | 0.0 | 1.0 | 0.00 | 0.00 | 0.00 | 66 | 1017.5 |
| 20260830144902 | 68 | 246 | 0.0 | 0.0 | 0.00 | 0.00 | 0.00 | 68 | 1017.4 |
| 20260830143849 | 67 | 246 | 0.0 | 1.0 | 0.00 | 0.00 | 0.00 | 72 | 1017.5 |
| 20260830143344 | 67 | 71 | 0.0 | 0.0 | 0.00 | 0.00 | 0.00 | 74 | 1017.5 |
| 20260830142331 | 66 | 71 | 0.0 | 0.0 | 0.00 | 0.00 | 0.00 | 74 | 1017.4 |
| 20260830140307 | 64 | 71 | 0.0 | 0.0 | 0.00 | 0.00 | 0.00 | 74 | 1017.3 |
| 20260830135801 | 64 | 71 | 0.0 | 0.0 | 0.00 | 0.00 | 0.00 | 74 | 1017.4 |
| 20260830135255 | 64 | 71 | 0.0 | 0.0 | 0.00 | 0.00 | 0.00 | 74 | 1017.4 |
| 20260830134750 | 63 | 71 | 0.0 | 0.0 | 0.00 | 0.00 | 0.00 | 74 | 1017.5 |
| 20260830134244 | 63 | 71 | 0.0 | 0.0 | 0.00 | 0.00 | 0.00 | 73 | 1017.4 |
| 20260830133739 | 63 | 71 | 0.0 | 0.0 | 0.00 | 0.00 | 0.00 | 73 | 1017.4 |
| 20260830133232 | 63 | 71 | 0.0 | 0.0 | 0.00 | 0.00 | 0.00 | 73 | 1017.5 |
| 20260830132726 | 63 | 71 | 0.0 | 0.0 | 0.00 | 0.00 | 0.00 | 73 | 1017.4 |
| 20260830132220 | 63 | 71 | 0.0 | 0.0 | 0.00 | 0.00 | 0.00 | 73 | 1017.4 |
| 20260830131713 | 63 | 71 | 0.0 | 0.0 | 0.00 | 0.00 | 0.00 | 72 | 1017.4 |
| 20260830131211 | 62 | 71 | 0.0 | 0.0 | 0.00 | 0.00 | 0.00 | 72 | 1017.4 |
| 20260830130703 | 62 | 71 | 0.0 | 0.0 | 0.00 | 0.00 | 0.00 | 72 | 1017.4 |
| 20260830130206 | 62 | 71 | 0.0 | 0.0 | 0.00 | 0.00 | 0.00 | 72 | 1017.4 |
| 20260830125703 | 62 | 71 | 0.0 | 0.0 | 0.00 | 0.00 | 0.00 | 72 | 1017.3 |
| 20260830125206 | 62 | 71 | 0.0 | 0.0 | 0.00 | 0.00 | 0.00 | 71 | 1017.2 |
| 20260830124704 | 62 | 71 | 0.0 | 0.0 | 0.00 | 0.00 | 0.00 | 71 | 1017.2 |
| 20260830124205 | 62 | 71 | 0.0 | 0.0 | 0.00 | 0.00 | 0.00 | 71 | 1017.1 |
| 20260830123206 | 62 | 71 | 0.0 | 0.0 | 0.00 | 0.00 | 0.00 | 70 | 1016.8 |
| 20260830122206 | 63 | 71 | 0.0 | 0.0 | 0.00 | 0.00 | 0.00 | 70 | 1016.7 |
| 20260830120700 | 63 | 71 | 0.0 | 0.0 | 0.00 | 0.00 | 0.00 | 70 | 1016.5 |
| 20260830120200 | 63 | 71 | 0.0 | 0.0 | 0.00 | 0.00 | 0.00 | 70 | 1016.5 |
| 20260830115700 | 63 | 71 | 0.0 | 0.0 | 0.00 | 0.00 | 0.00 | 70 | 1016.4 |
| 20260830115200 | 63 | 71 | 0.0 | 0.0 | 0.00 | 0.00 | 0.00 | 70 | 1016.5 |
| 20260830114659 | 63 | 71 | 0.0 | 0.0 | 0.00 | 0.00 | 0.00 | 70 | 1016.4 |
| 20260830114159 | 63 | 71 | 0.0 | 0.0 | 0.00 | 0.00 | 0.00 | 70 | 1016.2 |
| 20260830113659 | 64 | 71 | 0.0 | 0.0 | 0.00 | 0.00 | 0.00 | 70 | 1016.2 |
| 20260830113155 | 64 | 71 | 0.0 | 0.0 | 0.00 | 0.00 | 0.00 | 69 | 1016.2 |
| 20260830112655 | 64 | 71 | 0.0 | 0.0 | 0.00 | 0.00 | 0.00 | 69 | 1016.4 |
| 20260830111656 | 64 | 71 | 0.0 | 0.0 | 0.00 | 0.00 | 0.00 | 69 | 1016.5 |
| 20260830111156 | 64 | 71 | 0.0 | 0.0 | 0.00 | 0.00 | 0.00 | 69 | 1016.5 |
| 20260830110155 | 64 | 71 | 0.0 | 0.0 | 0.00 | 0.00 | 0.00 | 69 | 1016.5 |
| 20260830105656 | 64 | 71 | 0.0 | 0.0 | 0.00 | 0.00 | 0.00 | 69 | 1016.5 |
| 20260830104649 | 64 | 71 | 0.0 | 0.0 | 0.00 | 0.00 | 0.00 | 69 | 1016.4 |
| 20260830104143 | 65 | 71 | 0.0 | 0.0 | 0.00 | 0.00 | 0.00 | 70 | 1016.5 |
| 20260830103132 | 65 | 71 | 0.0 | 0.0 | 0.00 | 0.00 | 0.00 | 70 | 1016.2 |
| 20260830102626 | 65 | 71 | 0.0 | 0.0 | 0.00 | 0.00 | 0.00 | 70 | 1016.4 |
| 20260830102119 | 65 | 71 | 0.0 | 0.0 | 0.00 | 0.00 | 0.00 | 70 | 1016.4 |
| 20260830101612 | 65 | 71 | 0.0 | 0.0 | 0.00 | 0.00 | 0.00 | 70 | 1016.4 |
| 20260830101108 | 65 | 71 | 0.0 | 0.0 | 0.00 | 0.00 | 0.00 | 70 | 1016.5 |
| 20260830100601 | 65 | 71 | 0.0 | 0.0 | 0.00 | 0.00 | 0.00 | 70 | 1016.2 |
| 20260830100055 | 64 | 71 | 0.0 | 0.0 | 0.00 | 0.00 | 0.00 | 70 | 1016.4 |
| 20260830095547 | 64 | 71 | 0.0 | 0.0 | 0.00 | 0.00 | 0.00 | 70 | 1016.4 |
| 20260830095040 | 65 | 71 | 0.0 | 0.0 | 0.00 | 0.00 | 0.00 | 70 | 1016.5 |
| 20260830094029 | 65 | 71 | 0.0 | 0.0 | 0.00 | 0.00 | 0.00 | 71 | 1016.2 |
| 20260830093524 | 64 | 71 | 0.0 | 0.0 | 0.00 | 0.00 | 0.00 | 70 | 1016.2 |
| 20260830093016 | 64 | 71 | 0.0 | 0.0 | 0.00 | 0.00 | 0.00 | 69 | 1016.2 |
| 20260830092511 | 64 | 71 | 0.0 | 0.0 | 0.00 | 0.00 | 0.00 | 69 | 1016.2 |
| 20260830092005 | 64 | 71 | 0.0 | 0.0 | 0.00 | 0.00 | 0.00 | 69 | 1016.0 |
| 20260830091458 | 65 | 71 | 0.0 | 0.0 | 0.00 | 0.00 | 0.00 | 69 | 1016.1 |
| 20260830090953 | 64 | 71 | 0.0 | 0.0 | 0.00 | 0.00 | 0.00 | 69 | 1016.2 |
| 20260830090446 | 64 | 71 | 0.0 | 0.0 | 0.00 | 0.00 | 0.00 | 69 | 1016.4 |
| 20260830085941 | 64 | 71 | 0.0 | 0.0 | 0.00 | 0.00 | 0.00 | 69 | 1016.4 |
| 20260830085436 | 64 | 71 | 0.0 | 0.0 | 0.00 | 0.00 | 0.00 | 68 | 1016.5 |
| 20260830084928 | 64 | 71 | 0.0 | 0.0 | 0.00 | 0.00 | 0.00 | 68 | 1016.4 |
| 20260830084424 | 64 | 71 | 0.0 | 0.0 | 0.00 | 0.00 | 0.00 | 68 | 1016.5 |
| 20260830083917 | 64 | 71 | 0.0 | 0.0 | 0.00 | 0.00 | 0.00 | 68 | 1016.4 |
| 20260830083410 | 64 | 71 | 0.0 | 0.0 | 0.00 | 0.00 | 0.00 | 68 | 1016.4 |
| 20260830082904 | 64 | 71 | 0.0 | 0.0 | 0.00 | 0.00 | 0.00 | 68 | 1016.2 |
| 20260830082401 | 64 | 71 | 0.0 | 0.0 | 0.00 | 0.00 | 0.00 | 68 | 1016.2 |
| 20260830081854 | 64 | 71 | 0.0 | 0.0 | 0.00 | 0.00 | 0.00 | 68 | 1016.4 |
| 20260830081346 | 64 | 71 | 0.0 | 0.0 | 0.00 | 0.00 | 0.00 | 68 | 1016.4 |
| 20260830080335 | 64 | 71 | 0.0 | 0.0 | 0.00 | 0.00 | 0.00 | 67 | 1016.6 |
| 20260830075829 | 64 | 71 | 0.0 | 0.0 | 0.00 | 0.00 | 0.00 | 67 | 1016.6 |
| 20260830075324 | 64 | 71 | 0.0 | 0.0 | 0.00 | 0.00 | 0.00 | 67 | 1016.6 |
| 20260830074311 | 64 | 71 | 0.0 | 0.0 | 0.00 | 0.00 | 0.00 | 66 | 1016.5 |
| 20260830073805 | 64 | 71 | 0.0 | 0.0 | 0.00 | 0.00 | 0.00 | 66 | 1016.4 |
| 20260830072753 | 64 | 71 | 0.0 | 0.0 | 0.00 | 0.00 | 0.00 | 65 | 1016.5 |
| 20260830072246 | 64 | 72 | 0.0 | 0.0 | 0.00 | 0.00 | 0.00 | 65 | 1016.6 |
| 20260830071741 | 64 | 72 | 0.0 | 0.0 | 0.00 | 0.00 | 0.00 | 64 | 1016.6 |
| 20260830070736 | 64 | 72 | 0.0 | 0.0 | 0.00 | 0.00 | 0.00 | 64 | 1016.7 |
| 20260830070233 | 64 | 71 | 0.0 | 0.0 | 0.00 | 0.00 | 0.00 | 64 | 1016.9 |
| 20260830065731 | 64 | 72 | 0.0 | 0.0 | 0.00 | 0.00 | 0.00 | 63 | 1016.9 |
| 20260830064731 | 64 | 72 | 0.0 | 0.0 | 0.00 | 0.00 | 0.00 | 63 | 1017.2 |
| 20260830064231 | 64 | 71 | 0.0 | 0.0 | 0.00 | 0.00 | 0.00 | 63 | 1017.3 |
| 20260830063728 | 64 | 71 | 0.0 | 0.0 | 0.00 | 0.00 | 0.00 | 63 | 1017.4 |
| 20260830063229 | 64 | 72 | 0.0 | 0.0 | 0.00 | 0.00 | 0.00 | 62 | 1017.4 |
| 20260830062729 | 64 | 72 | 0.0 | 0.0 | 0.00 | 0.00 | 0.00 | 62 | 1017.4 |
| 20260830061730 | 65 | 72 | 0.0 | 0.0 | 0.00 | 0.00 | 0.00 | 62 | 1017.5 |
| 20260830061229 | 65 | 71 | 0.0 | 0.0 | 0.00 | 0.00 | 0.00 | 61 | 1017.6 |
| 20260830055223 | 65 | 71 | 0.0 | 0.0 | 0.00 | 0.00 | 0.00 | 61 | 1017.8 |
| 20260830054724 | 65 | 71 | 0.0 | 0.0 | 0.00 | 0.00 | 0.00 | 60 | 1017.6 |
| 20260830054225 | 65 | 72 | 0.0 | 0.0 | 0.00 | 0.00 | 0.00 | 60 | 1017.6 |
| 20260830053724 | 65 | 72 | 0.0 | 0.0 | 0.00 | 0.00 | 0.00 | 60 | 1017.8 |
| 20260830053218 | 65 | 71 | 0.0 | 0.0 | 0.00 | 0.00 | 0.00 | 60 | 1017.8 |
| 20260830052711 | 65 | 72 | 0.0 | 0.0 | 0.00 | 0.00 | 0.00 | 60 | 1017.9 |
| 20260830052205 | 65 | 72 | 0.0 | 0.0 | 0.00 | 0.00 | 0.00 | 59 | 1017.8 |
| 20260830051659 | 65 | 72 | 0.0 | 0.0 | 0.00 | 0.00 | 0.00 | 59 | 1017.8 |
| 20260830051159 | 66 | 71 | 0.0 | 0.0 | 0.00 | 0.00 | 0.00 | 59 | 1017.8 |
| 20260830050659 | 66 | 72 | 0.0 | 0.0 | 0.00 | 0.00 | 0.00 | 59 | 1017.9 |